Погода Макушино

Погода Макушино : погода сейчас, прогноз погоды и архив. Всё, что Вы хотите узнать о погоде Макушино!

Поиск расширенной информации на нашем сайте:

Другие новости

Новости СМИ2

Главная страница сайта

Новости сайта

02.10.2013

Напоминаем, что на нашем новом сайте вы можете получить высокодетализированные прогнозы погоды по пунктам России, СНГ и мира (включающие важные для авиации метеовеличины, такие как направление и скорость ветра, видимость, явления погоды, количество и форма облачности, нижняя и верхняя граница облачности), а также ознакомиться с разнообразными материалами по авиационной метеорологии и подборкой полезных ссылок на эту тему.

Сайт Метеоцентр.Азия посвящён разработке технологий оптимизации авиаметеорологического обслуживания, включая проектирование и перспективное создание нескольких автоматизированных авиаметеорологических систем:
- система выпуска высокодетальных прогностических карт явлений погоды для нижнего воздушного пространства по России и ближнему зарубежью;
- система верификации прогнозов TAF (выпускаемых синоптиками официальных АМСГ РФ и ближнего зарубежья) и AUTOTAF (выпускаемых сайтом Метеоцентр.Азия) - выявление ошибок, онлайн-сопоставление с фактической погодой METAR, автоматическое внесение коррективов в прогнозы при резком отклонении фактической погоды от прогноза, подсчёт оправдываемости прогнозов по элементам и в целом;
- система обработки, анализа и отображения авиаметеорологической информации для применения провайдерами метеорологической информации.

Рекомендуем: юрист недвижимость в Москве

Погода Макушино - сегодня

Время (UTC), дата Ветер
(°,м/с) 
Видим.   Явления Облачность Т
(°С)
Тd
(°С)
f(%) Тe
(°С)
Pmin
(гПа)
dP
(гПа)
Po
(мм)
O2
(г/м3)
Тmin Tmax R s Состояние
почвы
15 25.04.17 160 (Ю) 20000 м  {ливн. осадки}  9/9 1000 м кучево-дожд. 
[Cb cap]
+13.3 +10.1 81 +15  1014.9  -0.3  749  286    +18     
18 25.04.17 130 (ЮВ) 20000 м  {ливн. осадки}  10/10 1000 м кучево-дожд. 
[Cb cap]
+10.4 +8.9 90 +11  1015.1  0.1  749  289           
21 25.04.17 110 (В) 4000 м  дымка  10/10 1000 м кучево-дожд. 
[Cb cap]
+9.6 +8.2 91 +11  1014.7  -0.5  748  290           
00 26.04.17 020 (С) 4000 м  дымка  10/10 600 м кучево-дожд. 
[Cb cap]
+9.3 +8 92 +10  1014  -0.6  748  290           
03 26.04.17 030 (СВ) 20000 м  дымка{ливн. осадки}  6/6 1000 м кучево-дожд. 
[Cb cap]
+13 +10.7 86 +15  1013.4  -0.3  748  286  +8.8    0.0    мокрая 
06 26.04.17 330 (СЗ) 20000 м  {ливн. осадки}  3/3 1000 м кучево-дожд. 
[Cb cap]
+15.2 +11.5 79 +18  1012.4  -0.9  747  283           
09 26.04.17 330 (СЗ) 5{10}  20000 м    9/9 600 м кучево-дожд. 
[Cb cap]
+14.9 +9.6 71 +15  1012.8  0.3  747  284           
12 26.04.17 340 (С) 20000 м  в посл. час гроза{ливн. осадки}  8/8 600 м кучево-дожд. 
[Cb cap]
+12.9 +8.9 77 +12  1011.9  -0.9  746  286           
15 26.04.17 340 (С) 20000 м  {ливн. осадки}  9/9 600 м кучево-дожд. 
[Cb cap]
+11.8 +8.1 78 +12  1011.7  -0.3  746  287    +16.8     
18 26.04.17 310 (СЗ) 20000 м  {ливн. осадки}  10/10 600 м кучево-дожд. 
[Cb cap]
+9.6 +3.9 68 +9  1011.8  0.1  746  290           
21 26.04.17 310 (СЗ) 20000 м    10/10 1000 м кучево-дожд. 
[Cb cap]
+9.3 +2 60 +8  1013.2  1.4  747  291           
00 27.04.17 320 (СЗ) 7-10{10}  н/о    н/о 
+6.3 +0.9 68 +4  1015.1  1.7  749  295           
03 27.04.17 310 (СЗ) 8-11{12}  20000 м    10/10 1000 м кучево-дожд. 
[Cb cap]
+5.7 +0.2 68 +3  1018.4  3.2  751  296  +5.7        влажная 
06 27.04.17 310 (СЗ) 8-10{12}  20000 м  в посл. час ливневой дождь  8/8 1000 м кучево-дожд. 
[Cb cap]
+6.8 +0.2 63 +4  1021  3.2  753  296  +5.6         
09 27.04.17 340 (С) 5{10}  20000 м    8/5 1000 м кучево-дожд., верхняя 
[Cb cap|Ci sp]
+12.4 +0.6 44 +12  1022.1  1.4  754  290           
12 27.04.17 340 (С) 5{10}  20000 м    4/4 1000 м кучево-дожд. 
[Cb cap]
+12.7 -2.6 34 +12  1023.3  1.2  755  291           
15 27.04.17 360 (С) 20000 м    ясно 
+8.3 -2.7 46 +8  1024.8  1.3  756  296    +12.8  0.0     
18 27.04.17 190 (Ю) 20000 м    ясно 
+3.6 +0.7 81 +4  1026.5  1.3  757  301           
21 27.04.17 190 (Ю) 20000 м    ясно 
+3.3 -1.6 70 +4  1026.3  -0.2  757  301           
00 28.04.17 200 (Ю) 20000 м    ясно 
+3.5 -1.8 68 +3  1025.7  -0.6  756  301           
03 28.04.17 210 (ЮЗ) 20000 м    ясно 
+9.6 -0.6 49 +9  1024.9  -0.5  756  294  +2.4        мокрая 
06 28.04.17 210 (ЮЗ) 6{10}  20000 м    1/0 верхняя 
[Ci fib]
+15.5 -2.8 28 +15  1023.6  -0.9  755  288           
09 28.04.17 230 (ЮЗ) 6-11{12}  20000 м    3/3 1000 м верхняя 
[Cu hum|Ci fib]
+18.1 +1 32 +18  1021.5  -1.9  754  285           
12 28.04.17 240 (ЮЗ) 6{11}  20000 м    4/4 1000 м 
[Cu hum]
+19 +2.1 32 +19  1019.9  -1.5  753  283           
15 28.04.17 220 (ЮЗ) 3{11}  20000 м    3/0 верхняя 
[Ci fib]
+15.8 +2.6 41 +16  1019.4  -0.7  752  286    +19.2       
Время (UTC), дата Ветер
(°,м/с) 
Видим.   Явления Облачность Т
(°С)
Тd
(°С)
f(%) Тe
(°С)
Pmin
(гПа)
dP
(гПа)
Po
(мм)
O2
(г/м3)
Тmin Tmax R s Состояние
почвы

Для получения пояснительной информации подведите курсор к названию столбца.

ПОГОДА Макушино - архив

Всё, что Вы хотите узнать о погоде Макушино - удобно и подробно!

Выберите нужную дату (начиная с 1 января 2015* года) и нажмите кнопку "Найти".
Будут отображены архивные сводки погоды по пункту Макушино, начиная с указанной даты.


Отображать данные в формате CSV (для использования в таблицах Excel)


Внимание! Наш архив погоды предназначен исключительно для личного некоммерческого использования в познавательных целях. Если Вам необходимы официальные справки о состоянии погоды (для производственных, юридических, коммерческих и т.п. целей), обращайтесь в органы Росгидромета.

*Примечание: данная дата относится к архиву по метеостанциям СССР (Россия, СНГ, Балтия).
Архив по метеостанциям Зарубежной Европы и Азии (кроме Китая) хранится 10 дней, по другим регионам земного шара (Китай, Африка, Америка, Австралия, Океания) - 1 день.

Макушино - район местоположения метеостанции


Название, широта, долгота, высота метеостанции:
Макушино 55.2°ш. 67.3°д. 140 м над ур. моря [Российская Федерация]

Дополнительная информация

В oтличие oт бoльшинства пoгoдных сайтoв мы публикуем пoдрoбную метеoинфoрмацию в детальнoм прoфессиoнальнoм фoрмате.

Характеристики температуры и влажнoсти вoздуха измеряются на высoте 2 м в тени вдали oт зданий и деревьев.
Скoрoсть ветра измеряется на высoте 10 м (на урoвне рoста челoвека скoрoсть ветра ниже в 1.5-2 раза). Если метеoстанция нахoдится в гoрoде или в лесу, тo скoрoсть ветра занижена на 2-4 м/с пo сравнению с oткрытым местoм. Скoрoсть ветра над акватoриями крупных рек и oзёр, а также на вершинах хoлмoв на 2-5 м/с выше, чем в oбычных услoвиях.
Атмoсфернoе давление в разных тoчках местнoсти мoжет значительнo oтличаться oт давления на метеoстанции, в зависимoсти oт услoвий рельефа (при пoдъёме на 10 м давление пoнижается примернo на 1 мм рт.ст.).